| time (UTC) | temp F | wind direction | speed knots | gust knots | rain 1hr in | rain 24hr in | rain mn in | humidity % | barometer mb |
| 20260831151408 | 51 | 258 | 1.7 | 7.8 | 0.14 | 0.39 | 0.39 | 64 | 1017.9 |
| 20260831150408 | 50 | 303 | 3.5 | 6.1 | 0.17 | 0.37 | 0.37 | 66 | 1017.7 |
| 20260831145412 | 50 | 256 | 1.7 | 7.0 | 0.18 | 0.35 | 0.35 | 75 | 1017.9 |
| 20260831144407 | 49 | 287 | 5.2 | 7.0 | 0.19 | 0.34 | 0.34 | 77 | 1017.7 |
| 20260831143408 | 50 | 239 | 4.3 | 7.8 | 0.19 | 0.32 | 0.32 | 77 | 1017.9 |
| 20260831142408 | 51 | 224 | 5.2 | 8.7 | 0.17 | 0.29 | 0.29 | 77 | 1017.7 |
| 20260831141409 | 51 | 220 | 6.1 | 10.4 | 0.15 | 0.25 | 0.25 | 77 | 1017.8 |
| 20260831140408 | 51 | 219 | 7.0 | 11.3 | 0.12 | 0.20 | 0.20 | 77 | 1017.7 |
| 20260831135407 | 51 | 218 | 6.1 | 10.4 | 0.10 | 0.17 | 0.17 | 76 | 1017.5 |
| 20260831134408 | 51 | 219 | 5.2 | 8.7 | 0.08 | 0.15 | 0.15 | 76 | 1017.5 |
| 20260831133407 | 51 | 200 | 1.7 | 8.7 | 0.06 | 0.13 | 0.13 | 76 | 1017.3 |
| 20260831132410 | 52 | 197 | 2.6 | 5.2 | 0.05 | 0.12 | 0.12 | 75 | 1017.1 |
| 20260831131407 | 52 | 200 | 1.7 | 7.0 | 0.03 | 0.10 | 0.10 | 74 | 1017.0 |
| 20260831130409 | 52 | 212 | 0.9 | 9.6 | 0.01 | 0.08 | 0.08 | 71 | 1016.7 |
| 20260831125408 | 52 | 186 | 2.6 | 8.7 | 0.00 | 0.07 | 0.07 | 74 | 1016.7 |
| 20260831124408 | 52 | 136 | 5.2 | 7.8 | 0.00 | 0.07 | 0.07 | 73 | 1016.6 |
| 20260831123408 | 52 | 154 | 1.7 | 9.6 | 0.01 | 0.07 | 0.07 | 71 | 1016.3 |
| 20260831122407 | 53 | 147 | 3.5 | 8.7 | 0.03 | 0.07 | 0.07 | 65 | 1016.2 |
| 20260831121407 | 54 | 262 | 7.0 | 13.9 | 0.07 | 0.07 | 0.07 | 59 | 1016.1 |
| 20260831120407 | 54 | 291 | 11.3 | 20.9 | 0.07 | 0.07 | 0.07 | 59 | 1015.9 |
| 20260831115408 | 53 | 285 | 15.6 | 21.7 | 0.07 | 0.07 | 0.07 | 62 | 1015.7 |
| 20260831114408 | 53 | 302 | 11.3 | 15.6 | 0.07 | 0.07 | 0.07 | 63 | 1015.5 |
| 20260831113408 | 53 | 292 | 11.3 | 19.1 | 0.06 | 0.06 | 0.06 | 63 | 1015.5 |
| 20260831112407 | 53 | 289 | 15.6 | 20.9 | 0.04 | 0.04 | 0.04 | 66 | 1015.5 |
| 20260831111407 | 55 | 271 | 13.0 | 17.4 | 0.00 | 0.00 | 0.00 | 61 | 1015.7 |
| 20260831110407 | 56 | 305 | 10.4 | 14.8 | 0.00 | 0.00 | 0.00 | 57 | 1015.6 |
| 20260831105409 | 56 | 321 | 7.0 | 11.3 | 0.00 | 0.00 | 0.00 | 62 | 1015.7 |
| 20260831104408 | 56 | 309 | 4.3 | 9.6 | 0.00 | 0.00 | 0.00 | 63 | 1015.8 |
| 20260831103408 | 56 | 342 | 2.6 | 10.4 | 0.00 | 0.00 | 0.00 | 67 | 1015.8 |
| 20260831102408 | 55 | 18 | 0.9 | 9.6 | 0.00 | 0.00 | 0.00 | 68 | 1015.7 |
| 20260831101411 | 54 | 33 | 4.3 | 10.4 | 0.00 | 0.00 | 0.00 | 70 | 1015.6 |
| 20260831100411 | 54 | 32 | 3.5 | 9.6 | 0.00 | 0.00 | 0.00 | 73 | 1015.6 |
| 20260831095407 | 55 | 44 | 5.2 | 12.2 | 0.00 | 0.00 | 0.00 | 74 | 1015.5 |
| 20260831094108 | 56 | 337 | 3.5 | 13.9 | 0.00 | 0.00 | 0.00 | 72 | 1015.5 |
| 20260831093106 | 58 | 271 | 7.8 | 10.4 | 0.00 | 0.00 | 0.00 | 63 | 1015.8 |
| 20260831092106 | 60 | 284 | 5.2 | 11.3 | 0.00 | 0.00 | 0.00 | 58 | 1015.7 |
| 20260831091106 | 59 | 300 | 3.5 | 8.7 | 0.00 | 0.00 | 0.00 | 58 | 1015.7 |
| 20260831090106 | 60 | 301 | 3.5 | 7.0 | 0.00 | 0.00 | 0.00 | 57 | 1015.7 |
| 20260831085106 | 60 | 286 | 2.6 | 6.1 | 0.00 | 0.00 | 0.00 | 56 | 1015.6 |
| 20260831084106 | 61 | 277 | 0.9 | 5.2 | 0.00 | 0.00 | 0.00 | 54 | 1015.8 |
| 20260831083106 | 61 | 233 | 1.7 | 3.5 | 0.00 | 0.00 | 0.00 | 53 | 1015.8 |
| 20260831082106 | 61 | 0 | 0.0 | 0.0 | 0.00 | 0.00 | 0.00 | 55 | 1015.9 |
| 20260831081106 | 61 | 0 | 0.0 | 0.0 | 0.00 | 0.00 | 0.00 | 54 | 1015.9 |
| 20260831080106 | 60 | 0 | 0.0 | 1.7 | 0.00 | 0.00 | 0.00 | 54 | 1016.0 |
| 20260831075106 | 59 | 345 | 1.7 | 6.1 | 0.00 | 0.00 | 0.00 | 58 | 1015.9 |
| 20260831074106 | 59 | 328 | 1.7 | 7.0 | 0.00 | 0.00 | 0.00 | 58 | 1015.9 |
| 20260831073106 | 60 | 319 | 3.5 | 7.0 | 0.00 | 0.00 | 0.00 | 56 | 1016.1 |
| 20260831072109 | 61 | 328 | 1.7 | 4.3 | 0.00 | 0.00 | 0.00 | 53 | 1016.2 |
| 20260831071106 | 61 | 311 | 2.6 | 6.1 | 0.00 | 0.00 | 0.00 | 52 | 1016.3 |
| 20260831070106 | 61 | 0 | 0.0 | 0.0 | 0.00 | 0.00 | 0.00 | 51 | 1016.3 |
| 20260831065109 | 61 | 0 | 0.0 | 2.6 | 0.00 | 0.01 | 0.00 | 52 | 1016.4 |
| 20260831064106 | 60 | 0 | 0.0 | 5.2 | 0.00 | 0.02 | 0.00 | 55 | 1016.3 |
| 20260831063106 | 59 | 327 | 0.9 | 9.6 | 0.00 | 0.05 | 0.00 | 57 | 1016.3 |
| 20260831062106 | 59 | 332 | 2.6 | 7.0 | 0.00 | 0.05 | 0.00 | 59 | 1016.2 |
| 20260831061106 | 59 | 316 | 1.7 | 5.2 | 0.00 | 0.06 | 0.00 | 59 | 1016.2 |
| 20260831060106 | 59 | 0 | 0.0 | 8.7 | 0.00 | 0.08 | 0.00 | 60 | 1016.0 |
| 20260831055106 | 58 | 325 | 4.3 | 11.3 | 0.00 | 0.10 | 0.00 | 62 | 1016.1 |
| 20260831054109 | 58 | 315 | 7.0 | 14.8 | 0.00 | 0.11 | 0.00 | 63 | 1016.2 |
| 20260831053108 | 59 | 309 | 8.7 | 14.8 | 0.00 | 0.13 | 0.00 | 63 | 1016.1 |
| 20260831052109 | 61 | 306 | 7.8 | 15.6 | 0.00 | 0.15 | 0.00 | 57 | 1016.1 |
| 20260831051106 | 62 | 302 | 7.0 | 11.3 | 0.00 | 0.18 | 0.00 | 50 | 1016.2 |
| 20260831050109 | 62 | 305 | 7.0 | 11.3 | 0.00 | 0.19 | 0.00 | 51 | 1016.4 |
| 20260831045107 | 62 | 307 | 7.8 | 11.3 | 0.00 | 0.23 | 0.00 | 51 | 1016.4 |
| 20260831044107 | 62 | 303 | 7.8 | 11.3 | 0.00 | 0.37 | 0.00 | 50 | 1016.4 |
| 20260831043106 | 62 | 299 | 6.1 | 11.3 | 0.00 | 0.38 | 0.00 | 50 | 1016.5 |
| 20260831042106 | 62 | 307 | 7.0 | 10.4 | 0.00 | 0.41 | 0.00 | 50 | 1016.5 |
| 20260831041106 | 62 | 305 | 7.8 | 10.4 | 0.00 | 0.59 | 0.00 | 50 | 1016.5 |
| 20260831040108 | 62 | 306 | 7.0 | 9.6 | 0.00 | 0.79 | 0.00 | 50 | 1016.5 |
| 20260831035106 | 62 | 305 | 6.1 | 8.7 | 0.00 | 0.83 | 0.00 | 49 | 1016.5 |
| 20260831034106 | 62 | 315 | 3.5 | 8.7 | 0.00 | 0.86 | 0.00 | 49 | 1016.5 |
| 20260831033106 | 62 | 299 | 5.2 | 7.8 | 0.00 | 1.04 | 0.00 | 49 | 1016.4 |
| 20260831032109 | 62 | 299 | 6.1 | 8.7 | 0.00 | 1.05 | 0.00 | 49 | 1016.3 |
| 20260831031107 | 62 | 306 | 6.1 | 8.7 | 0.00 | 1.05 | 0.00 | 48 | 1016.2 |
| 20260831030106 | 62 | 301 | 6.1 | 8.7 | 0.00 | 1.05 | 0.00 | 48 | 1016.1 |
| 20260831025106 | 62 | 309 | 4.3 | 7.0 | 0.00 | 1.05 | 0.00 | 49 | 1016.1 |
| 20260831024106 | 62 | 306 | 5.2 | 7.8 | 0.00 | 1.05 | 0.00 | 49 | 1015.9 |
| 20260831023106 | 62 | 308 | 4.3 | 7.8 | 0.00 | 1.05 | 0.00 | 47 | 1015.8 |
| 20260831022106 | 62 | 314 | 4.3 | 8.7 | 0.00 | 1.05 | 0.00 | 48 | 1015.5 |
| 20260831021106 | 62 | 306 | 6.1 | 8.7 | 0.00 | 1.05 | 0.00 | 48 | 1015.5 |
| 20260831020106 | 62 | 311 | 4.3 | 7.0 | 0.00 | 1.05 | 0.00 | 49 | 1015.4 |
| 20260831015106 | 63 | 312 | 4.3 | 7.8 | 0.00 | 1.05 | 0.00 | 48 | 1015.4 |
| 20260831014106 | 63 | 310 | 3.5 | 7.0 | 0.00 | 1.05 | 0.00 | 48 | 1015.4 |
| 20260831013106 | 64 | 309 | 4.3 | 8.7 | 0.00 | 1.05 | 0.00 | 47 | 1015.3 |
| 20260831012106 | 64 | 304 | 6.1 | 9.6 | 0.00 | 1.05 | 0.00 | 47 | 1015.2 |
| 20260831011107 | 63 | 288 | 6.1 | 12.2 | 0.00 | 1.05 | 0.00 | 49 | 1015.2 |
| 20260831010109 | 64 | 281 | 6.1 | 13.0 | 0.00 | 1.05 | 0.00 | 49 | 1015.3 |
| 20260831005106 | 65 | 289 | 6.1 | 12.2 | 0.00 | 1.05 | 0.00 | 46 | 1015.3 |
| 20260831004107 | 65 | 285 | 8.7 | 13.9 | 0.00 | 1.05 | 0.00 | 45 | 1015.3 |
| 20260831003106 | 66 | 288 | 6.1 | 14.8 | 0.00 | 1.05 | 0.00 | 46 | 1015.4 |
| 20260831002107 | 66 | 283 | 5.2 | 13.0 | 0.00 | 1.05 | 0.00 | 45 | 1015.3 |
| 20260831001107 | 66 | 282 | 4.3 | 11.3 | 0.00 | 1.05 | 0.00 | 45 | 1015.4 |
| 20260831000106 | 67 | 258 | 6.1 | 10.4 | 0.00 | 1.05 | 0.00 | 44 | 1015.3 |
| 20260830235106 | 67 | 279 | 8.7 | 13.9 | 0.00 | 1.05 | 0.00 | 42 | 1015.3 |
| 20260830234107 | 67 | 280 | 4.3 | 10.4 | 0.00 | 1.05 | 0.00 | 43 | 1015.4 |
| 20260830233106 | 66 | 277 | 6.1 | 13.0 | 0.00 | 1.05 | 0.00 | 43 | 1015.4 |
| 20260830231409 | 66 | 263 | 7.0 | 15.6 | 0.00 | 1.05 | 0.00 | 44 | 1015.6 |
| 20260830230409 | 67 | 260 | 7.0 | 11.3 | 0.00 | 1.05 | 1.08 | 42 | 1015.6 |
| 20260830225409 | 67 | 274 | 6.1 | 11.3 | 0.00 | 1.05 | 1.08 | 40 | 1015.8 |
| 20260830224409 | 67 | 286 | 4.3 | 11.3 | 0.00 | 1.05 | 1.08 | 41 | 1015.8 |
| 20260830223409 | 66 | 275 | 5.2 | 13.0 | 0.00 | 1.05 | 1.08 | 44 | 1016.0 |
| 20260830222410 | 67 | 202 | 1.7 | 10.4 | 0.00 | 1.05 | 1.08 | 42 | 1016.0 |
| 20260830221409 | 68 | 316 | 2.6 | 8.7 | 0.00 | 1.05 | 1.08 | 42 | 1016.1 |
| 20260830220409 | 68 | 315 | 5.2 | 9.6 | 0.00 | 1.05 | 1.08 | 38 | 1016.5 |
| 20260830215409 | 68 | 284 | 5.2 | 9.6 | 0.00 | 1.05 | 1.08 | 38 | 1016.6 |
| 20260830213808 | 67 | 262 | 2.6 | 9.6 | 0.00 | 1.05 | 1.08 | 42 | 1016.7 |
| 20260830212808 | 66 | 233 | 4.3 | 10.4 | 0.00 | 1.05 | 1.08 | 44 | 1016.9 |
| 20260830211808 | 67 | 249 | 5.2 | 11.3 | 0.00 | 1.05 | 1.08 | 44 | 1017.0 |
| 20260830210810 | 66 | 253 | 6.1 | 12.2 | 0.00 | 1.05 | 1.08 | 41 | 1017.1 |
| 20260830205808 | 66 | 249 | 7.0 | 13.9 | 0.00 | 1.05 | 1.08 | 38 | 1017.2 |
| 20260830204808 | 66 | 262 | 6.1 | 10.4 | 0.00 | 1.05 | 1.08 | 43 | 1017.3 |
| 20260830203808 | 67 | 236 | 3.5 | 8.7 | 0.00 | 1.05 | 1.08 | 40 | 1017.4 |
| 20260830202808 | 66 | 251 | 2.6 | 10.4 | 0.00 | 1.05 | 1.08 | 44 | 1017.5 |
| 20260830201808 | 66 | 264 | 4.3 | 8.7 | 0.00 | 1.05 | 1.08 | 49 | 1017.6 |
| 20260830200810 | 65 | 259 | 2.6 | 8.7 | 0.00 | 1.05 | 1.08 | 49 | 1017.6 |
| 20260830195808 | 66 | 266 | 3.5 | 8.7 | 0.00 | 1.05 | 1.08 | 48 | 1017.7 |
| 20260830194809 | 65 | 256 | 1.7 | 7.8 | 0.00 | 1.05 | 1.08 | 46 | 1017.7 |
| 20260830193808 | 65 | 267 | 4.3 | 8.7 | 0.00 | 1.05 | 1.08 | 49 | 1017.8 |
| 20260830192808 | 65 | 255 | 5.2 | 9.6 | 0.00 | 1.05 | 1.08 | 48 | 1017.9 |
| 20260830191808 | 65 | 268 | 2.6 | 8.7 | 0.00 | 1.05 | 1.08 | 49 | 1017.8 |
| 20260830190808 | 64 | 278 | 2.6 | 9.6 | 0.00 | 1.05 | 1.08 | 48 | 1018.0 |
| 20260830185808 | 63 | 293 | 5.2 | 11.3 | 0.00 | 1.05 | 1.08 | 50 | 1018.1 |
| 20260830184809 | 63 | 287 | 7.0 | 13.0 | 0.00 | 1.05 | 1.08 | 52 | 1018.1 |
| 20260830183808 | 62 | 288 | 4.3 | 12.2 | 0.00 | 1.05 | 1.08 | 56 | 1018.2 |
| 20260830182808 | 62 | 257 | 5.2 | 14.8 | 0.00 | 1.05 | 1.08 | 55 | 1018.3 |
| 20260830181808 | 62 | 292 | 4.3 | 13.0 | 0.00 | 1.05 | 1.08 | 54 | 1018.4 |
| 20260830180808 | 62 | 287 | 4.3 | 13.9 | 0.00 | 1.05 | 1.08 | 56 | 1018.5 |
| 20260830175808 | 61 | 273 | 7.8 | 14.8 | 0.00 | 1.05 | 1.08 | 57 | 1018.5 |
| 20260830174808 | 61 | 277 | 10.4 | 14.8 | 0.00 | 1.05 | 1.08 | 57 | 1018.5 |
| 20260830173808 | 61 | 266 | 7.0 | 14.8 | 0.00 | 1.05 | 1.08 | 58 | 1018.5 |
| 20260830172808 | 60 | 263 | 8.7 | 15.6 | 0.00 | 1.05 | 1.08 | 59 | 1018.4 |
| 20260830171808 | 59 | 270 | 9.6 | 15.6 | 0.00 | 1.05 | 1.08 | 62 | 1018.3 |
| 20260830170808 | 59 | 271 | 8.7 | 13.0 | 0.00 | 1.05 | 1.08 | 60 | 1018.3 |
| 20260830165808 | 58 | 273 | 8.7 | 13.0 | 0.00 | 1.05 | 1.08 | 60 | 1018.3 |
| 20260830164808 | 58 | 263 | 7.0 | 12.2 | 0.00 | 1.05 | 1.08 | 59 | 1018.3 |
| 20260830163808 | 58 | 267 | 8.7 | 13.0 | 0.00 | 1.05 | 1.08 | 59 | 1018.3 |
| 20260830162808 | 59 | 264 | 8.7 | 13.9 | 0.00 | 1.05 | 1.08 | 57 | 1018.3 |
| 20260830161808 | 59 | 272 | 7.8 | 12.2 | 0.00 | 1.05 | 1.08 | 57 | 1018.2 |
| 20260830160810 | 58 | 270 | 8.7 | 13.0 | 0.00 | 1.05 | 1.08 | 58 | 1018.1 |
| 20260830155808 | 58 | 267 | 7.8 | 10.4 | 0.00 | 1.05 | 1.08 | 58 | 1018.1 |
| 20260830154808 | 57 | 271 | 7.0 | 11.3 | 0.00 | 1.05 | 1.08 | 58 | 1018.0 |
| 20260830153808 | 57 | 275 | 7.0 | 12.2 | 0.00 | 1.05 | 1.08 | 57 | 1018.0 |
| 20260830152808 | 57 | 274 | 7.0 | 12.2 | 0.00 | 1.05 | 1.08 | 57 | 1018.0 |